Renton, WA

3:51 PM PDT on May 27, 2018 (GMT -0700)
Renton Municipal

Weather History for KRNT - August, 2013

Change the Weather History Date:

Saturday, August 31, 2013

  Actual Average Record
Temperature  
Mean Temperature 67 °F -  
Max Temperature 80 °F 73 °F 87 °F (1998)
Min Temperature 55 °F 54 °F 48 °F (2006)
Cooling Degree Days 2    
Growing Degree Days 17 (Base 50)    
Moisture  
Dew Point 56 °F    
Average Humidity 70    
Maximum Humidity 94    
Minimum Humidity 45    
Precipitation  
Precipitation 0.00 in - - ()
Sea Level Pressure  
Sea Level Pressure 29.98 in    
Wind  
Wind Speed 5 mph (NW)    
Max Wind Speed 13 mph    
Max Gust Speed -    
Visibility 9 miles    
Events      
Averages and records for this station are not official NWS values.
T = Trace of Precipitation, MM = Missing Value Source: NWS Daily Summary

Daily Weather History Graph

Daily Weather History Graph

Search for Another Location

Airport or City:

Astronomy

Aug. 31, 2013 Rise Set
Actual Time 6:26 AM PDT 7:50 PM PDT
Civil Twilight 5:54 AM PDT 8:22 PM PDT
Nautical Twilight 5:16 AM PDT 9:00 PM PDT
Astronomical Twilight 4:34 AM PDT 9:42 PM PDT
Moon 1:48 AM PDT (8/31) 5:02 PM PDT (8/31)
Length of Visible Light 14h 27m
Length of Day
13h 23m
Waning Crescent, 20% of the Moon is Illuminated
Aug 31
Waning Crescent
Sep 5
New
Sep 12
First Quarter
Sep 19
Full
Sep 26
Last Quarter

Hourly Weather History & Observations

Time (PDT) Temp. Dew Point Humidity Pressure Visibility Wind Dir Wind Speed Gust Speed Precip Events Conditions
12:40 AM 64.4 °F 55.4 °F 73% 30.08 in 2.5 mi NNW 6.9 mph - N/A   Haze
12:51 AM 64.4 °F 55.4 °F 73% 30.08 in 4.0 mi North 4.6 mph - N/A   Haze
12:53 AM 64.0 °F 55.9 °F 75% 30.10 in 6.0 mi NNW 4.6 mph - N/A   Haze
1:53 AM 63.0 °F 55.0 °F 75% 30.09 in 10.0 mi North 3.5 mph - N/A   Clear
2:53 AM 62.1 °F 55.9 °F 80% 30.08 in 10.0 mi North 4.6 mph - N/A   Clear
3:53 AM 59.0 °F 55.9 °F 90% 30.08 in 10.0 mi Calm Calm - N/A   Clear
4:53 AM 60.1 °F 55.9 °F 86% 30.07 in 10.0 mi NNW 4.6 mph - N/A   Clear
5:53 AM 55.9 °F 54.0 °F 93% 30.07 in 10.0 mi Calm Calm - N/A   Clear
6:53 AM 55.9 °F 54.0 °F 93% 30.06 in 9.0 mi Calm Calm - N/A   Clear
7:39 AM 55.4 °F 53.6 °F 94% 30.04 in 9.0 mi Calm Calm - N/A   Mostly Cloudy
7:53 AM 57.0 °F 54.0 °F 89% 30.05 in 9.0 mi Calm Calm - N/A   Mostly Cloudy
8:53 AM 61.0 °F 57.9 °F 90% 30.04 in 8.0 mi NW 4.6 mph - N/A   Overcast
9:04 AM 62.6 °F 57.2 °F 82% 30.02 in 8.0 mi NW 5.8 mph - N/A   Partly Cloudy
9:53 AM 63.0 °F 57.9 °F 84% 30.03 in 9.0 mi NW 4.6 mph - N/A   Clear
10:53 AM 68.0 °F 57.9 °F 70% 30.01 in 10.0 mi WNW 8.1 mph - N/A   Clear
11:53 AM 72.0 °F 57.0 °F 59% 29.98 in 4.0 mi WNW 10.4 mph - N/A   Haze
12:53 PM 75.0 °F 55.9 °F 51% 29.96 in 4.0 mi WNW 10.4 mph - N/A   Haze
1:53 PM 77.0 °F 57.0 °F 50% 29.94 in 10.0 mi WNW 12.7 mph - N/A   Clear
2:53 PM 78.1 °F 57.0 °F 48% 29.91 in 10.0 mi WNW 11.5 mph - N/A   Clear
3:53 PM 79.0 °F 57.0 °F 47% 29.89 in 10.0 mi NW 11.5 mph - N/A   Clear
4:53 PM 79.0 °F 55.9 °F 45% 29.88 in 10.0 mi WNW 8.1 mph - N/A   Clear
5:53 PM 79.0 °F 57.0 °F 47% 29.87 in 10.0 mi NW 6.9 mph - N/A   Clear
6:53 PM 78.1 °F 55.9 °F 46% 29.86 in 10.0 mi NW 5.8 mph - N/A   Clear
7:53 PM 73.9 °F 55.9 °F 53% 29.85 in 10.0 mi Calm Calm - N/A   Clear
8:53 PM 70.0 °F 55.9 °F 61% 29.86 in 10.0 mi WNW 3.5 mph - N/A   Clear
9:53 PM 68.0 °F 57.0 °F 68% 29.86 in 10.0 mi Calm Calm - N/A   Clear
10:53 PM 68.0 °F 57.9 °F 70% 29.86 in 10.0 mi Calm Calm - N/A   Clear
11:53 PM 66.0 °F 59.0 °F 78% 29.86 in 10.0 mi Calm Calm - N/A   Clear